Temperature
19 19 19 19 18 18 19 19 19 20 19 19 18 18 17 16 15 15 14 14 14 13 13 13 13 13 13 13 13 12 12 12 12 12 12 12 12 12 12 12 12 12 12 12
18 18 18 18 18 18 18 18 18 18 18 19 17 17 16 15 15 14 14 13 13 13 13 13 12 12 12 12 12 12 12 12 12 12 12 12 12 12 12 11 11 11 11 11
18 18 18 18 19 18 18 18 18 18 18 18 17 16 15 15 14 14 13 13 12 12 12 12 12 12 12 12 12 11 11 11 11 11 11 11 11 11 11 11 11 11 11 11
17 17 17 19 18 17 17 17 17 17 17 16 16 15 14 14 13 13 12 12 12 12 12 12 12 11 11 11 11 11 11 11 11 11 11 11 11 11 11 11 10 10 10 10
17 17 17 18 17 17 17 17 17 17 16 15 14 14 14 13 12 12 12 12 11 11 11 11 11 11 11 11 11 11 10 10 10 10 10 10 10 10 10 10 10 10 10 10
16 16 16 18 17 15 16 16 16 16 15 14 14 15 15 12 12 11 11 11 11 11 11 11 11 11 11 11 10 10 10 10 10 10 10 10 10 10 10 10 10 10 9 9
16 16 17 17 15 15 16 17 15 15 14 14 14 15 13 11 11 11 10 10 10 10 10 10 10 10 10 10 10 10 10 9 9 9 9 9 9 9 9 9 9 9 9 9
16 16 16 15 15 16 16 15 14 14 13 13 13 12 11 11 10 10 10 10 10 10 10 10 10 10 9 9 9 9 9 9 9 9 9 9 9 8 8 8 8 8 8 8
16 16 15 13 14 13 13 13 13 13 12 12 11 11 10 10 10 9 9 9 9 9 9 9 9 9 9 9 9 9 9 9 8 8 8 8 8 8 8 8 8 8 8 8
15 15 14 13 12 12 12 12 12 11 11 11 11 10 10 9 9 9 9 9 9 9 9 9 9 9 8 8 8 8 8 8 8 8 8 8 8 8 8 7 7 7 7 7
14 14 13 12 12 12 11 11 11 10 10 10 10 10 9 9 9 8 8 8 8 8 8 8 8 8 8 8 8 8 7 8 8 8 8 8 7 7 7 7 7 7 7 7
14 14 14 13 11 11 11 10 10 10 10 10 9 9 9 8 8 8 8 8 8 8 8 7 7 7 8 8 7 7 7 7 7 7 7 7 7 7 7 7 7 7 7 7
12 11 11 11 10 10 10 10 10 9 9 9 9 8 8 8 8 7 7 7 7 7 7 7 7 7 7 7 7 7 6 6 6 6 6 6 6 6 6 6 6 6 6 6
10 10 10 10 9 9 9 9 9 9 9 8 8 8 7 7 7 7 7 7 7 6 6 6 6 6 7 7 6 6 6 6 6 6 6 6 6 6 6 6 6 6 6 6
9 9 9 9 9 9 8 8 8 8 8 8 7 7 7 7 7 7 6 6 6 6 6 6 6 6 6 6 6 5 5 5 5 5 5 5 5 5 5 5 5 5 5 5
8 8 8 8 8 8 8 8 8 8 7 7 7 7 7 6 6 6 6 6 5 5 5 5 5 5 5 5 5 5 5 5 5 5 5 5 4 5 4 4 4 4 4 4
8 8 8 8 7 7 7 7 7 7 7 7 7 6 6 6 6 6 5 5 5 5 5 5 5 5 5 4 4 4 4 4 4 4 4 4 4 4 4 4 4 4 4 4
8 8 8 7 7 7 7 7 7 7 6 6 6 6 6 5 5 5 5 5 4 4 4 4 4 4 4 4 4 4 4 4 4 4 4 4 4 4 3 3 3 3 3 3
7 7 7 7 7 7 6 6 6 6 6 6 6 5 5 5 5 5 5 4 4 4 4 4 4 4 4 3 3 3 3 3 3 3 3 3 3 3 3 3 3 3 3 3
7 7 6 6 6 6 6 6 6 6 6 5 5 5 5 5 4 4 4 4 4 3 3 3 3 3 3 3 3 3 3 3 3 3 3 3 2 3 3 2 2 2 2 2
6 6 6 6 6 6 6 6 5 5 5 5 5 4 4 4 4 4 3 3 3 3 3 3 3 3 2 2 2 2 2 2 2 2 2 2 2 2 2 2 2 2 2 2
6 6 5 5 5 5 5 5 5 5 5 4 4 4 4 4 4 3 3 3 3 3 3 2 2 2 2 2 2 2 2 2 2 2 2 2 2 2 2 2 1 1 1 1
5 5 5 5 5 5 5 4 4 4 4 4 4 4 3 3 3 3 3 3 3 3 2 2 2 2 2 2 1 1 1 1 1 1 1 1 1 1 1 1 1 1 1 1
5 5 5 4 4 4 4 4 4 4 4 4 3 3 3 3 3 3 3 3 2 2 2 2 2 2 1 1 1 1 1 1 1 1 1 1 1 1 1 0 0 0 0 0
4 4 4 4 4 4 4 3 3 3 3 3 3 3 3 3 3 2 2 2 2 2 2 2 1 1 1 1 1 0 0 0 0 0 0 0 0 0 0 0 0 0 -0 0
4 4 4 3 3 3 3 3 3 3 3 2 2 2 2 2 2 2 2 2 2 1 1 1 1 1 1 0 0 0 0 0 0 0 -0 -0 -0 -0 -0 -0 -0 -0 -0 -0
3 3 3 3 3 3 3 3 2 2 2 2 2 2 2 2 2 2 1 1 1 1 1 0 0 0 0 -0 -0 -0 -0 -0 -1 -1 -1 -1 -0 -0 -1 -1 -1 -1 -1 -1
Wind_Speed
8 6 6 8 9 10 12 12 12 12 10 8 6 5 4 3 2 2 2 2 2 2 2 2 2 2 3 3 3 3 4 4 5 5 5 5 5 5 5 6 6 6 6 6
7 6 7 10 11 11 12 11 12 12 10 7 5 4 3 2 2 2 3 3 2 3 2 3 3 3 4 4 3 3 4 5 4 5 5 5 6 6 6 6 6 6 6 7
7 6 7 9 9 10 9 8 8 9 7 3 3 3 3 3 3 3 3 3 3 3 4 4 4 4 4 4 4 4 4 5 5 5 5 5 6 6 6 7 6 6 7 7
6 6 9 3 2 3 6 6 7 7 5 4 4 4 3 3 3 3 3 3 4 4 4 4 4 4 4 4 4 4 5 5 5 5 6 5 6 6 7 6 6 6 7 8
5 8 9 5 3 3 5 6 4 5 4 3 2 3 3 2 3 3 4 4 4 4 4 4 4 4 4 4 4 4 5 5 5 5 6 6 6 6 6 6 6 7 7 8
6 7 6 2 1 1 4 5 1 2 2 1 2 4 3 3 4 4 4 4 4 4 4 4 4 4 4 4 4 5 5 5 5 5 5 6 6 6 5 5 6 6 6 7
10 9 6 2 1 3 5 2 1 1 2 2 4 4 4 3 4 4 4 5 5 4 4 4 4 4 4 5 5 5 5 5 5 5 5 5 5 5 5 5 5 5 6 6
7 8 6 2 3 3 2 3 1 2 2 3 3 3 3 3 4 4 5 5 5 5 4 5 5 4 5 5 5 5 5 5 5 5 5 4 5 5 5 5 5 5 6 6
5 4 2 2 2 2 2 2 2 2 2 2 3 3 4 4 4 4 5 5 5 5 5 5 5 5 5 5 5 5 5 5 5 5 5 5 5 5 5 5 5 5 5 5
6 6 4 3 3 3 3 3 3 2 2 2 3 3 4 4 4 5 5 5 5 5 5 6 6 6 5 6 6 5 5 5 5 5 5 5 5 4 4 5 5 5 5 5
8 7 5 5 4 4 3 2 2 3 3 3 3 4 4 4 4 5 5 5 5 5 6 7 6 6 6 5 5 5 5 5 5 5 6 5 5 4 5 5 5 5 5 5
8 7 7 6 4 4 4 4 3 3 3 3 3 4 4 4 4 5 5 6 6 6 7 7 6 6 6 6 6 6 5 5 5 5 5 4 4 4 3 4 4 5 6 6
8 7 7 6 5 4 4 4 4 4 4 4 4 4 4 4 4 5 5 5 6 7 7 7 7 7 6 6 6 6 6 6 5 5 4 4 4 4 4 3 2 3 4 4
6 5 6 6 5 4 4 4 4 4 4 4 4 4 4 4 4 5 5 6 6 6 7 7 7 8 7 7 7 7 7 6 5 5 4 4 4 4 4 4 4 4 3 2
6 6 6 5 4 4 3 3 4 4 4 4 4 4 4 4 4 5 5 5 6 6 7 7 7 8 7 7 7 7 6 5 5 5 4 4 4 4 4 4 4 4 4 3
5 4 4 5 4 4 4 4 5 5 5 4 4 4 4 4 4 4 5 5 5 6 7 7 8 8 7 7 7 6 6 5 5 5 5 4 4 4 4 4 4 4 4 4
4 4 4 4 4 5 5 5 5 5 5 5 4 4 4 3 4 4 5 5 6 6 7 7 8 7 7 7 6 5 5 5 5 5 4 4 4 4 4 4 4 4 5 4
5 5 5 5 5 5 5 5 5 5 5 5 4 4 4 4 5 5 5 5 6 6 7 7 7 7 6 6 6 5 5 4 4 4 4 4 4 4 4 4 4 4 4 4
2 3 3 4 4 4 4 4 4 5 4 4 4 4 4 5 5 5 5 5 6 7 7 7 7 7 6 6 5 5 4 4 4 4 4 4 4 4 4 4 4 4 4 3
1 1 1 1 2 2 3 3 4 4 4 4 4 4 5 5 5 5 5 6 5 6 7 7 6 6 6 5 5 4 4 4 4 4 4 4 4 4 4 4 4 4 4 4
1 1 1 2 2 3 3 4 4 4 4 4 5 5 5 5 5 5 5 6 6 6 5 6 5 5 5 5 4 4 4 4 4 4 4 4 4 4 4 4 4 4 4 4
2 2 2 2 3 4 4 4 4 4 4 4 5 5 5 5 5 5 6 5 5 5 5 4 4 5 6 6 4 4 4 5 4 4 4 4 4 4 4 4 4 4 4 4
2 2 3 3 3 4 4 4 4 4 5 5 5 5 5 5 5 5 6 5 4 5 5 4 5 6 7 5 4 4 4 4 4 4 4 4 4 4 4 4 4 4 4 4
3 3 3 3 3 4 4 5 5 4 5 5 5 5 5 5 5 5 5 4 4 5 5 4 4 6 6 4 4 4 4 4 4 4 4 4 4 4 4 4 4 4 4 4
3 3 4 4 4 4 5 5 5 5 5 4 5 5 5 5 5 4 4 5 5 5 4 4 5 5 4 4 4 4 4 4 5 5 5 4 4 4 4 4 4 4 4 4
3 4 4 5 5 5 4 4 4 4 4 5 5 5 4 4 5 4 4 5 5 5 5 4 4 4 4 4 4 4 4 4 5 5 5 4 4 4 4 4 5 4 4 4
3 4 4 4 4 4 4 4 5 5 5 5 5 5 5 4 4 4 4 4 4 4 4 4 4 3 3 3 4 4 4 4 4 4 4 4 4 4 4 5 4 4 4 4
Wind_Direction
270 277 262 259 257 245 244 255 263 272 273 284 288 291 294 288 298 311 312 303 321 334 339 333 325 317 306 294 283 265 258 260 259 260 259 259 254 250 247 245 247 249 250 250
258 257 258 264 262 252 248 254 259 267 273 291 295 295 299 295 297 300 303 303 312 318 322 319 317 318 317 310 298 281 269 270 271 265 262 261 258 253 249 246 245 248 251 250
262 265 269 261 255 242 240 244 255 262 275 293 296 289 292 296 293 296 306 314 308 309 315 316 317 316 311 309 301 287 280 277 273 268 263 262 262 257 250 247 246 245 249 251
267 260 252 271 51 244 242 252 263 272 279 275 292 292 285 299 294 296 312 321 322 319 317 317 316 315 314 311 302 297 292 284 277 269 263 264 262 260 254 250 247 248 251 252
250 257 265 260 246 237 242 255 262 261 270 285 312 286 270 320 314 309 312 317 322 320 316 314 315 315 313 314 314 308 302 297 285 274 269 265 264 263 261 256 253 253 255 256
238 252 262 275 103 240 253 251 240 251 260 259 258 274 297 340 322 321 324 322 321 320 317 314 314 311 306 306 308 307 306 302 298 285 272 265 263 264 264 259 258 259 258 257
238 249 261 308 125 189 233 314 69 248 256 235 265 303 323 316 313 319 322 321 318 315 315 317 315 305 301 305 305 306 304 302 300 296 283 272 270 267 264 263 263 263 264 264
230 240 251 127 166 218 318 12 349 309 291 276 302 320 312 311 312 316 318 321 319 311 311 314 310 300 298 302 307 307 302 300 301 300 295 283 277 273 269 265 264 265 265 267
231 249 14 174 230 314 323 301 305 301 300 286 291 298 299 302 306 310 311 313 316 310 308 309 306 298 295 300 303 301 298 301 303 300 297 287 279 274 274 269 265 268 270 273
249 253 261 258 262 275 281 285 294 288 279 270 282 286 288 293 300 306 307 308 310 305 303 307 310 305 299 301 298 294 296 298 296 294 294 290 281 272 264 263 262 265 273 277
252 262 270 254 259 265 273 281 283 285 281 277 276 279 286 292 298 304 305 305 306 303 303 305 308 308 307 304 299 294 296 298 296 293 291 288 276 270 263 263 266 266 272 274
260 264 265 270 272 273 268 267 268 277 289 286 274 277 286 291 297 301 304 309 310 309 304 303 307 308 307 303 297 295 298 300 299 297 295 292 286 283 279 260 269 272 269 267
271 282 282 280 273 272 268 265 267 276 278 283 282 279 280 288 295 298 300 306 309 308 306 306 306 305 306 303 296 292 293 296 295 294 293 291 288 283 289 299 274 259 259 261
262 263 266 262 266 268 262 265 272 276 278 280 281 280 283 291 296 297 301 306 307 307 305 306 309 309 310 305 299 295 294 293 291 288 286 286 286 285 283 283 293 303 306 284
250 259 259 263 259 255 253 255 261 267 276 281 280 279 282 286 291 296 304 307 306 307 310 311 311 312 314 308 301 298 295 295 295 293 290 288 288 289 290 289 289 296 303 308
257 259 246 241 244 248 249 253 261 269 273 275 280 283 285 285 288 296 302 306 307 309 313 314 313 315 316 310 305 302 299 298 293 288 288 288 290 290 292 292 291 290 290 295
232 238 240 242 245 248 252 257 261 266 270 271 278 285 288 291 295 299 305 308 307 308 312 313 315 318 316 311 304 300 299 297 290 286 285 285 286 286 288 287 287 289 292 303
238 242 242 240 242 252 260 266 266 266 268 274 280 279 276 279 287 297 305 308 308 309 313 317 318 317 313 308 303 302 300 301 303 302 296 293 294 292 290 290 291 292 296 302
248 250 248 246 253 253 261 270 274 272 270 266 269 274 275 280 289 296 300 301 302 305 312 318 320 311 308 310 312 301 299 300 303 304 301 297 290 289 288 289 294 295 293 296
272 261 246 262 275 272 269 273 277 276 271 266 266 269 275 283 290 293 294 295 297 303 308 315 312 311 312 312 314 305 305 300 300 302 300 294 292 290 289 290 293 295 295 295
238 238 246 263 280 283 278 275 275 278 278 272 265 265 272 281 286 288 291 293 301 310 309 306 305 311 314 318 314 314 313 309 304 303 299 294 292 290 288 287 291 297 299 300
243 245 254 266 279 289 291 286 281 280 281 277 272 271 275 282 285 286 286 290 299 310 307 299 302 317 321 316 309 310 308 305 302 301 299 295 292 290 290 292 292 296 299 298
256 260 265 271 278 288 294 290 286 283 278 277 275 273 273 278 278 279 286 293 297 303 303 299 314 318 314 306 304 301 300 301 301 300 299 298 296 292 291 292 294 297 300 301
273 276 278 283 284 279 283 292 294 288 282 281 278 275 275 276 276 275 283 289 292 295 294 299 303 305 301 296 297 296 296 297 297 297 298 296 294 292 293 294 294 295 293 295
272 277 278 278 277 279 283 290 292 290 287 284 283 279 275 272 274 279 281 283 287 289 292 298 299 301 297 298 297 296 296 296 297 299 294 292 291 290 291 291 291 290 288 289
270 274 274 273 278 280 281 280 281 284 285 284 285 282 275 272 272 275 278 282 283 284 288 293 294 289 292 296 297 298 298 297 293 290 289 287 285 285 286 286 285 285 288 291
273 279 283 284 284 280 277 273 274 277 279 282 287 287 282 277 274 276 279 282 282 281 285 289 288 286 287 289 291 293 296 297 297 297 297 294 291 288 286 285 285 285 287 288
Height
1519 1520 1521 1520 1520 1520 1520 1517 1517 1512 1513 1513 1514 1516 1517 1517 1518 1517 1517 1517 1516 1516 1515 1514 1514 1513 1513 1512 1512 1512 1512 1512 1512 1512 1512 1512 1512 1512 1512 1512 1512 1512 1512 1512
1521 1520 1520 1520 1517 1517 1517 1516 1515 1513 1513 1512 1515 1516 1516 1516 1516 1516 1516 1515 1515 1514 1513 1513 1512 1511 1510 1509 1508 1508 1508 1507 1507 1507 1507 1507 1507 1507 1507 1507 1507 1507 1507 1507
1519 1519 1520 1518 1511 1513 1513 1513 1513 1512 1511 1513 1514 1515 1515 1515 1515 1515 1514 1514 1513 1513 1512 1511 1510 1509 1507 1506 1505 1505 1504 1503 1503 1503 1503 1503 1503 1502 1502 1502 1502 1502 1502 1503
1519 1521 1524 1511 1510 1511 1512 1512 1512 1512 1512 1514 1515 1515 1515 1514 1514 1514 1513 1512 1511 1510 1510 1509 1507 1506 1505 1504 1502 1501 1500 1499 1499 1499 1498 1498 1498 1498 1498 1498 1498 1497 1497 1498
1520 1518 1512 1509 1509 1511 1511 1510 1510 1511 1512 1514 1514 1514 1513 1513 1513 1513 1512 1511 1510 1509 1507 1506 1504 1503 1502 1501 1500 1498 1497 1496 1495 1495 1494 1494 1493 1493 1493 1493 1492 1492 1492 1492
1519 1520 1516 1507 1509 1511 1511 1509 1510 1511 1511 1512 1513 1510 1510 1512 1511 1511 1510 1509 1508 1506 1505 1503 1502 1501 1499 1498 1497 1495 1494 1492 1491 1491 1490 1489 1489 1489 1488 1488 1488 1487 1487 1487
1515 1515 1507 1507 1510 1511 1513 1508 1510 1510 1511 1511 1511 1511 1512 1511 1510 1509 1508 1506 1505 1504 1503 1501 1499 1498 1497 1495 1494 1492 1490 1489 1488 1487 1486 1485 1485 1484 1484 1483 1483 1482 1482 1482
1512 1513 1510 1509 1510 1509 1508 1509 1509 1510 1510 1511 1511 1510 1510 1509 1508 1507 1505 1504 1503 1501 1500 1499 1497 1496 1494 1492 1491 1489 1487 1486 1484 1483 1482 1481 1481 1480 1480 1479 1479 1478 1478 1477
1506 1507 1507 1508 1508 1509 1509 1509 1509 1509 1509 1509 1509 1509 1508 1507 1506 1505 1504 1502 1500 1499 1497 1496 1494 1493 1491 1489 1487 1485 1484 1482 1481 1480 1478 1477 1477 1476 1475 1475 1474 1473 1473 1473
1506 1504 1507 1508 1508 1508 1508 1508 1508 1508 1508 1507 1507 1506 1506 1505 1504 1503 1501 1500 1498 1496 1494 1493 1491 1490 1488 1486 1484 1482 1481 1479 1477 1476 1474 1473 1472 1471 1471 1470 1470 1469 1469 1468
1503 1504 1505 1506 1506 1507 1507 1506 1506 1506 1506 1505 1505 1504 1503 1502 1501 1500 1499 1497 1496 1494 1492 1490 1488 1486 1484 1483 1481 1479 1477 1476 1474 1472 1470 1468 1466 1466 1466 1466 1465 1465 1464 1465
1500 1501 1502 1503 1503 1504 1504 1504 1504 1504 1503 1503 1502 1501 1501 1500 1499 1497 1496 1495 1493 1491 1489 1487 1485 1483 1481 1480 1478 1476 1474 1472 1470 1468 1465 1463 1462 1462 1461 1461 1461 1461 1461 1461
1500 1500 1500 1500 1500 1501 1501 1501 1501 1501 1501 1500 1500 1499 1498 1497 1496 1495 1493 1492 1490 1488 1486 1484 1482 1480 1478 1476 1474 1472 1471 1469 1466 1464 1462 1460 1459 1458 1457 1457 1457 1457 1456 1456
1497 1498 1497 1497 1498 1498 1498 1498 1498 1498 1498 1498 1497 1496 1495 1494 1493 1492 1491 1489 1487 1485 1483 1481 1479 1476 1475 1473 1471 1469 1467 1465 1463 1461 1459 1458 1456 1455 1454 1453 1452 1451 1451 1451
1494 1495 1495 1494 1495 1495 1495 1495 1496 1495 1495 1495 1494 1493 1492 1491 1490 1488 1487 1486 1484 1482 1480 1478 1475 1473 1471 1469 1467 1465 1463 1462 1460 1458 1456 1454 1453 1452 1451 1450 1449 1448 1447 1446
1491 1491 1491 1491 1492 1492 1492 1493 1492 1492 1492 1491 1490 1489 1488 1488 1486 1485 1484 1483 1481 1479 1476 1474 1472 1469 1467 1465 1463 1461 1460 1458 1456 1455 1453 1451 1450 1448 1448 1447 1446 1445 1444 1442
1487 1488 1488 1488 1489 1489 1489 1489 1489 1489 1488 1488 1487 1486 1485 1484 1483 1482 1481 1479 1478 1476 1474 1471 1469 1466 1464 1462 1460 1458 1456 1454 1453 1451 1450 1448 1447 1446 1445 1444 1443 1441 1440 1439
1485 1485 1485 1486 1485 1486 1486 1486 1486 1485 1485 1484 1484 1483 1482 1481 1480 1479 1477 1476 1474 1472 1471 1469 1466 1463 1461 1459 1457 1455 1453 1451 1449 1448 1446 1445 1443 1442 1442 1441 1440 1438 1437 1436
1482 1483 1483 1483 1483 1483 1483 1483 1482 1482 1482 1481 1480 1480 1479 1478 1477 1476 1474 1473 1471 1469 1467 1465 1463 1460 1458 1456 1454 1452 1450 1448 1446 1445 1444 1442 1441 1440 1439 1438 1437 1435 1434 1433
1480 1480 1480 1480 1480 1480 1480 1480 1479 1479 1478 1477 1477 1476 1475 1475 1474 1472 1471 1470 1468 1466 1464 1462 1460 1457 1455 1453 1451 1449 1447 1445 1444 1442 1440 1439 1438 1437 1436 1435 1434 1433 1431 1430
1478 1478 1478 1478 1478 1478 1477 1477 1476 1475 1475 1474 1473 1473 1472 1471 1470 1469 1467 1466 1464 1463 1460 1458 1457 1455 1453 1450 1448 1446 1444 1443 1441 1439 1438 1436 1435 1434 1433 1432 1431 1430 1428 1427
1476 1476 1476 1476 1475 1475 1474 1474 1473 1472 1471 1471 1470 1469 1468 1467 1466 1465 1464 1463 1461 1459 1457 1455 1454 1452 1450 1447 1445 1443 1441 1440 1438 1436 1435 1434 1432 1431 1430 1429 1427 1426 1425 1424
1474 1474 1474 1473 1473 1472 1471 1470 1470 1469 1468 1467 1466 1466 1465 1464 1463 1462 1460 1459 1457 1455 1453 1452 1450 1448 1446 1444 1442 1440 1438 1437 1435 1433 1432 1430 1429 1428 1427 1425 1424 1423 1422 1420
1472 1471 1471 1470 1470 1469 1468 1467 1467 1466 1465 1464 1463 1462 1461 1460 1459 1458 1456 1454 1453 1451 1449 1448 1446 1444 1442 1440 1438 1437 1435 1433 1431 1430 1428 1427 1426 1424 1423 1422 1421 1420 1418 1417
1469 1469 1468 1467 1467 1466 1465 1464 1463 1462 1461 1460 1459 1458 1457 1456 1455 1453 1452 1450 1449 1447 1445 1444 1442 1440 1438 1437 1435 1433 1431 1430 1428 1426 1425 1423 1422 1421 1420 1418 1417 1416 1415 1413
1466 1466 1465 1464 1464 1462 1461 1460 1459 1458 1457 1456 1455 1454 1453 1452 1451 1449 1448 1446 1445 1443 1441 1440 1438 1436 1435 1433 1431 1429 1428 1426 1424 1423 1421 1419 1418 1417 1416 1415 1413 1412 1411 1410
1462 1462 1461 1460 1459 1458 1457 1456 1455 1454 1453 1452 1451 1450 1449 1447 1446 1445 1443 1442 1440 1439 1437 1436 1434 1433 1431 1429 1428 1426 1424 1422 1421 1419 1417 1416 1415 1414 1412 1411 1410 1409 1408 1407